Time,TemperatureF,DewpointF,PressureIn,WindDirection,WindDirectionDegrees,WindSpeedMPH,WindSpeedGustMPH,Humidity,HourlyPrecipIn,Conditions,Clouds,dailyrainin,SolarRadiationWatts/m^2,SoftwareType,DateUTC
2013-10-05 00:00:00,69.0,66.0,-100.00,SSE,157,3.0,-999.0,90,-99.99,,,-99.99,0.000000,,2013-10-05 04:00:00,
2013-10-05 00:44:00,69.0,66.0,-100.00,SSE,157,3.0,-999.0,90,-99.99,,,-99.99,0.000000,,2013-10-05 04:44:00,
2013-10-05 00:54:00,69.0,66.0,-100.00,SSE,157,3.0,-999.0,90,-99.99,,,-99.99,0.000000,,2013-10-05 04:54:00,
2013-10-05 01:00:00,68.0,66.0,-100.00,ESE,112,3.0,-999.0,94,-99.99,,,-99.99,0.000000,,2013-10-05 05:00:00,
2013-10-05 01:43:00,68.0,66.0,-100.00,ESE,112,3.0,-999.0,94,-99.99,,,-99.99,0.000000,,2013-10-05 05:43:00,
2013-10-05 01:52:00,68.0,66.0,-100.00,ESE,112,3.0,-999.0,94,-99.99,,,-99.99,0.000000,,2013-10-05 05:52:00,
2013-10-05 02:00:00,67.0,66.0,-100.00,ESE,112,3.0,-999.0,96,-99.99,,,-99.99,0.000000,,2013-10-05 06:00:00,
2013-10-05 02:43:00,67.0,66.0,-100.00,ESE,112,3.0,-999.0,96,-99.99,,,-99.99,0.000000,,2013-10-05 06:43:00,
2013-10-05 02:52:00,67.0,66.0,-100.00,ESE,112,3.0,-999.0,96,-99.99,,,-99.99,0.000000,,2013-10-05 06:52:00,
2013-10-05 03:00:00,66.0,65.0,-100.00,SE,135,3.0,-999.0,96,-99.99,,,-99.99,0.000000,,2013-10-05 07:00:00,
2013-10-05 03:42:00,66.0,65.0,-100.00,SE,135,3.0,-999.0,96,-99.99,,,-99.99,0.000000,,2013-10-05 07:42:00,
2013-10-05 03:52:00,66.0,65.0,-100.00,SE,135,3.0,-999.0,96,-99.99,,,-99.99,0.000000,,2013-10-05 07:52:00,
2013-10-05 04:00:00,67.0,66.0,-100.00,South,180,1.0,-999.0,96,-99.99,,,-99.99,0.000000,,2013-10-05 08:00:00,
2013-10-05 04:42:00,67.0,66.0,-100.00,South,180,1.0,-999.0,96,-99.99,,,-99.99,0.000000,,2013-10-05 08:42:00,
2013-10-05 04:52:00,67.0,66.0,-100.00,South,180,1.0,-999.0,96,-99.99,,,-99.99,0.000000,,2013-10-05 08:52:00,
2013-10-05 05:00:00,66.0,65.0,-100.00,SSW,202,1.0,-999.0,96,-99.99,,,-99.99,0.000000,,2013-10-05 09:00:00,
2013-10-05 05:43:00,66.0,65.0,-100.00,SSW,202,1.0,-999.0,96,-99.99,,,-99.99,0.000000,,2013-10-05 09:43:00,
2013-10-05 05:54:00,66.0,65.0,-100.00,SSW,202,1.0,-999.0,96,-99.99,,,-99.99,0.000000,,2013-10-05 09:54:00,
2013-10-05 06:00:00,66.0,65.0,-100.00,South,180,1.0,-999.0,96,-99.99,,,-99.99,0.000000,,2013-10-05 10:00:00,
2013-10-05 06:43:00,66.0,65.0,-100.00,South,180,1.0,-999.0,96,-99.99,,,-99.99,0.000000,,2013-10-05 10:43:00,
2013-10-05 06:54:00,66.0,65.0,-100.00,South,180,1.0,-999.0,96,-99.99,,,-99.99,0.000000,,2013-10-05 10:54:00,
2013-10-05 07:00:00,64.0,63.0,-100.00,ENE,67,1.0,-999.0,97,-99.99,,,-99.99,0.000000,,2013-10-05 11:00:00,
2013-10-05 07:43:00,64.0,63.0,-100.00,ENE,67,1.0,-999.0,97,-99.99,,,-99.99,0.000000,,2013-10-05 11:43:00,
2013-10-05 07:52:00,64.0,63.0,-100.00,ENE,67,1.0,-999.0,97,-99.99,,,-99.99,0.000000,,2013-10-05 11:52:00,
2013-10-05 08:00:00,65.0,65.0,-100.00,ESE,112,2.0,-999.0,98,-99.99,,,-99.99,2.320000,,2013-10-05 12:00:00,
2013-10-05 08:42:00,65.0,65.0,-100.00,ESE,112,2.0,-999.0,98,-99.99,,,-99.99,2.320000,,2013-10-05 12:42:00,
2013-10-05 08:53:00,65.0,65.0,-100.00,ESE,112,2.0,-999.0,98,-99.99,,,-99.99,2.320000,,2013-10-05 12:53:00,
2013-10-05 09:00:00,65.0,65.0,-100.00,East,90,2.0,-999.0,98,-99.99,,,-99.99,44.080002,,2013-10-05 13:00:00,
2013-10-05 09:42:00,65.0,65.0,-100.00,East,90,2.0,-999.0,98,-99.99,,,-99.99,44.080002,,2013-10-05 13:42:00,
2013-10-05 09:52:00,65.0,65.0,-100.00,East,90,2.0,-999.0,98,-99.99,,,-99.99,44.080002,,2013-10-05 13:52:00,
2013-10-05 10:00:00,68.0,67.0,-100.00,SE,135,2.0,-999.0,97,-99.99,,,-99.99,143.839996,,2013-10-05 14:00:00,
2013-10-05 10:42:00,68.0,67.0,-100.00,SE,135,2.0,-999.0,97,-99.99,,,-99.99,143.839996,,2013-10-05 14:42:00,
2013-10-05 10:52:00,68.0,67.0,-100.00,SE,135,2.0,-999.0,97,-99.99,,,-99.99,143.839996,,2013-10-05 14:52:00,
2013-10-05 11:00:00,71.0,68.0,-100.00,South,180,3.0,-999.0,91,-99.99,,,-99.99,81.199997,,2013-10-05 15:00:00,
2013-10-05 11:44:00,71.0,68.0,-100.00,South,180,3.0,-999.0,91,-99.99,,,-99.99,81.199997,,2013-10-05 15:44:00,
2013-10-05 11:54:00,71.0,68.0,-100.00,South,180,3.0,-999.0,91,-99.99,,,-99.99,81.199997,,2013-10-05 15:54:00,
2013-10-05 12:00:00,72.0,69.0,-100.00,South,180,4.0,-999.0,90,-99.99,,,-99.99,102.080002,,2013-10-05 16:00:00,
2013-10-05 12:43:00,72.0,69.0,-100.00,South,180,4.0,-999.0,90,-99.99,,,-99.99,102.080002,,2013-10-05 16:43:00,
2013-10-05 12:53:00,72.0,69.0,-100.00,South,180,4.0,-999.0,90,-99.99,,,-99.99,102.080002,,2013-10-05 16:53:00,
2013-10-05 13:00:00,74.0,69.0,-100.00,SSW,202,4.0,-999.0,86,-99.99,,,-99.99,176.320007,,2013-10-05 17:00:00,
2013-10-05 13:42:00,74.0,69.0,-100.00,SSW,202,4.0,-999.0,86,-99.99,,,-99.99,176.320007,,2013-10-05 17:42:00,
2013-10-05 13:53:00,74.0,69.0,-100.00,SSW,202,4.0,-999.0,86,-99.99,,,-99.99,176.320007,,2013-10-05 17:53:00,
2013-10-05 14:00:00,76.0,70.0,-100.00,SSW,202,4.0,-999.0,80,-99.99,,,-99.99,317.839996,,2013-10-05 18:00:00,
2013-10-05 14:42:00,76.0,70.0,-100.00,SSW,202,4.0,-999.0,80,-99.99,,,-99.99,317.839996,,2013-10-05 18:42:00,
2013-10-05 14:52:00,76.0,70.0,-100.00,SSW,202,4.0,-999.0,80,-99.99,,,-99.99,317.839996,,2013-10-05 18:52:00,
2013-10-05 15:00:00,77.0,70.0,-100.00,South,180,5.0,-999.0,77,-99.99,,,-99.99,306.239990,,2013-10-05 19:00:00,
2013-10-05 15:42:00,77.0,70.0,-100.00,South,180,5.0,-999.0,77,-99.99,,,-99.99,306.239990,,2013-10-05 19:42:00,
2013-10-05 15:52:00,77.0,70.0,-100.00,South,180,5.0,-999.0,77,-99.99,,,-99.99,306.239990,,2013-10-05 19:52:00,
2013-10-05 16:00:00,77.0,69.0,-100.00,South,180,5.0,-999.0,77,-99.99,,,-99.99,161.240005,,2013-10-05 20:00:00,
2013-10-05 16:42:00,77.0,69.0,-100.00,South,180,5.0,-999.0,77,-99.99,,,-99.99,161.240005,,2013-10-05 20:42:00,
2013-10-05 16:52:00,77.0,69.0,-100.00,South,180,5.0,-999.0,77,-99.99,,,-99.99,161.240005,,2013-10-05 20:52:00,
2013-10-05 17:00:00,74.0,69.0,-100.00,SSW,202,3.0,-999.0,86,-99.99,,,-99.99,61.480000,,2013-10-05 21:00:00,
2013-10-05 17:44:00,74.0,69.0,-100.00,SSW,202,3.0,-999.0,86,-99.99,,,-99.99,61.480000,,2013-10-05 21:44:00,
2013-10-05 17:54:00,74.0,69.0,-100.00,SSW,202,3.0,-999.0,86,-99.99,,,-99.99,61.480000,,2013-10-05 21:54:00,
2013-10-05 18:00:00,73.0,70.0,-100.00,SSE,157,5.0,-999.0,88,-99.99,,,-99.99,53.360001,,2013-10-05 22:00:00,
2013-10-05 18:43:00,73.0,70.0,-100.00,SSE,157,5.0,-999.0,88,-99.99,,,-99.99,53.360001,,2013-10-05 22:43:00,
2013-10-05 18:53:00,73.0,70.0,-100.00,SSE,157,5.0,-999.0,88,-99.99,,,-99.99,53.360001,,2013-10-05 22:53:00,
2013-10-05 19:00:00,73.0,69.0,-100.00,SE,135,3.0,-999.0,89,-99.99,,,-99.99,10.440000,,2013-10-05 23:00:00,
2013-10-05 19:43:00,73.0,69.0,-100.00,SE,135,3.0,-999.0,89,-99.99,,,-99.99,10.440000,,2013-10-05 23:43:00,
2013-10-05 19:53:00,73.0,69.0,-100.00,SE,135,3.0,-999.0,89,-99.99,,,-99.99,10.440000,,2013-10-05 23:53:00,
2013-10-05 20:00:00,73.0,69.0,-100.00,SSE,157,4.0,-999.0,88,-99.99,,,-99.99,0.000000,,2013-10-06 00:00:00,
2013-10-05 20:43:00,73.0,69.0,-100.00,SSE,157,4.0,-999.0,88,-99.99,,,-99.99,0.000000,,2013-10-06 00:43:00,
2013-10-05 20:52:00,73.0,69.0,-100.00,SSE,157,4.0,-999.0,88,-99.99,,,-99.99,0.000000,,2013-10-06 00:52:00,
2013-10-05 21:00:00,71.0,67.0,-100.00,SSW,202,4.0,-999.0,85,-99.99,,,-99.99,0.000000,,2013-10-06 01:00:00,
2013-10-05 21:42:00,71.0,67.0,-100.00,SSW,202,4.0,-999.0,85,-99.99,,,-99.99,0.000000,,2013-10-06 01:42:00,
2013-10-05 21:52:00,71.0,67.0,-100.00,SSW,202,4.0,-999.0,85,-99.99,,,-99.99,0.000000,,2013-10-06 01:52:00,
2013-10-05 22:00:00,68.0,65.0,-100.00,SW,225,1.0,-999.0,89,-99.99,,,-99.99,0.000000,,2013-10-06 02:00:00,
2013-10-05 22:42:00,68.0,65.0,-100.00,SW,225,1.0,-999.0,89,-99.99,,,-99.99,0.000000,,2013-10-06 02:42:00,
2013-10-05 22:53:00,68.0,65.0,-100.00,SW,225,1.0,-999.0,89,-99.99,,,-99.99,0.000000,,2013-10-06 02:53:00,
2013-10-05 23:45:00,68.0,65.0,-100.00,SW,225,1.0,-999.0,90,0.12,,,-99.99,0.000000,,2013-10-06 03:45:00,
2013-10-05 23:54:00,68.0,65.0,-100.00,SW,225,1.0,-999.0,90,0.12,,,-99.99,0.000000,,2013-10-06 03:54:00,